sat.trackr.live / text

‹ back to catalog

RANGE-A

NORAD 43773 · 2018-099R

PAYLOAD ACTIVE UNKNOWN

§ Identity

Operator
Country
US
Launch date
2018-12-03
Launch site
AFWTR
Launch vehicle
Mass (kg)
RCS (m²)

External: N2YO · Heavens-Above · Gunter

§ Orbital elements

Epoch: 2026-05-25T02:25:17.927616Z

Period
95.17 min
Inclination
97.3984°
Eccentricity
0.0011986
Mean motion
15.13152228 rev/d
Perigee alt
518.3 km
Apogee alt
534.9 km
Semi-major
6,904.7 km
B*
2.0961e-4
RAAN
188.3575°
Arg perigee
71.7505°
Mean anomaly
288.5030°
Rev number
40,900

§ Raw data

RANGE-A1 43773U 18099R   26145.10090194  .00003658  00000+0  20961-3 0  99952 43773  97.3984 188.3575 0011986  71.7505 288.5030 15.13152228409002

JSON: /api/v1/satellites/43773 · /tle

For live sub-satellite position, see the globe view (requires WebGL).

§ Visibility from observer

Set your observer location to see the next 7 days of passes ≥ 10°. The values pass through the URL so the page stays shareable.

No JS? Fill the form by hand. The geolocation button needs JavaScript.

§ Radio — SatNOGS DB

ModeDescriptionDownlinkUplink
FSK FSK 437.475 MHz
GFSK GFSK Commissioning Phase 437.475 MHz
GFSK GFSK Commissioning Phase (crosslink) 437.150 MHz

3 transmitters · refreshed weekly from db.satnogs.org